User: anonymous   Login
Location: Goheenville
(40.9070°N, 79.3720°W)
Time: 09:41:43
(UTC-04:00)
Language:

Cosmos 1727 Rocket - Orbit

View from above orbital plane
View from above orbital plane
View from above satellite
View from above satellite

Ground track
Ground track

The orbit data is extracted from the following two-line orbital elements,

1 16511U 86008B   14302.80641615  .00000060  00000-0  45988-4 0  6101
2 16511 082.9475 212.8414 0025669 088.7423 333.8709 13.75772953444085
Epoch (UTC): 29 October 2014 19:21:14
Eccentricity: 0.0025669
inclination: 82.9475°
perigee height: 960 km
apogee height: 998 km
right ascension of ascending node: 212.8414°
argument of perigee: 88.7423°
revolutions per day: 13.75772953
mean anomaly at epoch: 333.8709°
orbit number at epoch: 44408

The dashed part of the orbit path shows where the satellite is in the earth's shadow,  

DLR